<?xml version="1.0" encoding="UTF-8" standalone="no" ?>
<gpx xmlns="http://www.topografix.com/GPX/1/1" xmlns:xsi="http://www.w3.org/2001/XMLSchema-instance" xsi:schemaLocation="http://www.topografix.com/GPX/1/1 http://www.topografix.com/GPX/1/1/gpx.xsd" version="1.1" creator="VisuGPX - https://www.visugpx.com">
  <metadata>
    <name>La Charité</name>
    <desc><![CDATA[circuit du jeudi]]></desc>
  </metadata>
  <trk>
    <name><![CDATA[track]]></name>
    <trkseg>
      <trkpt lat="46.31593" lon="2.58938">
        <ele>274</ele>
        <time>2013-02-02T09:23:44Z</time>
      </trkpt>
      <trkpt lat="46.31341" lon="2.59112">
        <ele>272</ele>
        <time>2013-02-02T09:23:44Z</time>
      </trkpt>
      <trkpt lat="46.31309" lon="2.59112">
        <ele>272</ele>
        <time>2013-02-02T09:23:44Z</time>
      </trkpt>
      <trkpt lat="46.31322" lon="2.59314">
        <ele>262</ele>
        <time>2013-02-02T09:23:44Z</time>
      </trkpt>
      <trkpt lat="46.31322" lon="2.59404">
        <ele>261</ele>
        <time>2013-02-02T09:23:44Z</time>
      </trkpt>
      <trkpt lat="46.31273" lon="2.59508">
        <ele>266</ele>
        <time>2013-02-02T09:23:44Z</time>
      </trkpt>
      <trkpt lat="46.31236" lon="2.59514">
        <ele>267</ele>
        <time>2013-02-02T09:23:44Z</time>
      </trkpt>
      <trkpt lat="46.31156" lon="2.59482">
        <ele>267</ele>
        <time>2013-02-02T09:23:44Z</time>
      </trkpt>
      <trkpt lat="46.3107" lon="2.59403">
        <ele>270</ele>
        <time>2013-02-02T09:23:44Z</time>
      </trkpt>
      <trkpt lat="46.30949" lon="2.59299">
        <ele>275</ele>
        <time>2013-02-02T09:23:44Z</time>
      </trkpt>
      <trkpt lat="46.30886" lon="2.59214">
        <ele>276</ele>
        <time>2013-02-02T09:23:44Z</time>
      </trkpt>
      <trkpt lat="46.305" lon="2.59147">
        <ele>265</ele>
        <time>2013-02-02T09:23:44Z</time>
      </trkpt>
      <trkpt lat="46.30446" lon="2.59108">
        <ele>266</ele>
        <time>2013-02-02T09:23:44Z</time>
      </trkpt>
      <trkpt lat="46.30352" lon="2.58952">
        <ele>272</ele>
        <time>2013-02-02T09:23:44Z</time>
      </trkpt>
      <trkpt lat="46.30078" lon="2.5875">
        <ele>286</ele>
        <time>2013-02-02T09:23:44Z</time>
      </trkpt>
      <trkpt lat="46.29813" lon="2.5856">
        <ele>298</ele>
        <time>2013-02-02T09:23:44Z</time>
      </trkpt>
      <trkpt lat="46.29467" lon="2.58156">
        <ele>313</ele>
        <time>2013-02-02T09:23:44Z</time>
      </trkpt>
      <trkpt lat="46.28749" lon="2.5718">
        <ele>336</ele>
        <time>2013-02-02T09:23:44Z</time>
      </trkpt>
      <trkpt lat="46.28565" lon="2.56919">
        <ele>344</ele>
        <time>2013-02-02T09:23:44Z</time>
      </trkpt>
      <trkpt lat="46.28404" lon="2.56782">
        <ele>349</ele>
        <time>2013-02-02T09:23:44Z</time>
      </trkpt>
      <trkpt lat="46.28345" lon="2.56724">
        <ele>350</ele>
        <time>2013-02-02T09:23:44Z</time>
      </trkpt>
      <trkpt lat="46.28296" lon="2.56698">
        <ele>353</ele>
        <time>2013-02-02T09:23:44Z</time>
      </trkpt>
      <trkpt lat="46.28256" lon="2.56697">
        <ele>354</ele>
        <time>2013-02-02T09:23:44Z</time>
      </trkpt>
      <trkpt lat="46.28175" lon="2.56716">
        <ele>356</ele>
        <time>2013-02-02T09:23:44Z</time>
      </trkpt>
      <trkpt lat="46.28107" lon="2.56768">
        <ele>358</ele>
        <time>2013-02-02T09:23:44Z</time>
      </trkpt>
      <trkpt lat="46.28084" lon="2.56768">
        <ele>358</ele>
        <time>2013-02-02T09:23:44Z</time>
      </trkpt>
      <trkpt lat="46.28044" lon="2.56755">
        <ele>358</ele>
        <time>2013-02-02T09:23:44Z</time>
      </trkpt>
      <trkpt lat="46.28008" lon="2.56716">
        <ele>358</ele>
        <time>2013-02-02T09:23:44Z</time>
      </trkpt>
      <trkpt lat="46.27995" lon="2.5667">
        <ele>359</ele>
        <time>2013-02-02T09:23:44Z</time>
      </trkpt>
      <trkpt lat="46.27954" lon="2.56586">
        <ele>361</ele>
        <time>2013-02-02T09:23:44Z</time>
      </trkpt>
      <trkpt lat="46.27941" lon="2.56521">
        <ele>360</ele>
        <time>2013-02-02T09:23:44Z</time>
      </trkpt>
      <trkpt lat="46.27973" lon="2.5632">
        <ele>358</ele>
        <time>2013-02-02T09:23:44Z</time>
      </trkpt>
      <trkpt lat="46.27973" lon="2.56197">
        <ele>356</ele>
        <time>2013-02-02T09:23:44Z</time>
      </trkpt>
      <trkpt lat="46.27951" lon="2.55989">
        <ele>354</ele>
        <time>2013-02-02T09:23:44Z</time>
      </trkpt>
      <trkpt lat="46.27947" lon="2.55794">
        <ele>357</ele>
        <time>2013-02-02T09:23:44Z</time>
      </trkpt>
      <trkpt lat="46.27943" lon="2.55638">
        <ele>361</ele>
        <time>2013-02-02T09:23:44Z</time>
      </trkpt>
      <trkpt lat="46.27889" lon="2.5534">
        <ele>363</ele>
        <time>2013-02-02T09:23:44Z</time>
      </trkpt>
      <trkpt lat="46.27881" lon="2.5521">
        <ele>356</ele>
        <time>2013-02-02T09:23:44Z</time>
      </trkpt>
      <trkpt lat="46.27903" lon="2.54996">
        <ele>357</ele>
        <time>2013-02-02T09:23:44Z</time>
      </trkpt>
      <trkpt lat="46.27908" lon="2.54866">
        <ele>359</ele>
        <time>2013-02-02T09:23:44Z</time>
      </trkpt>
      <trkpt lat="46.27872" lon="2.54808">
        <ele>361</ele>
        <time>2013-02-02T09:23:44Z</time>
      </trkpt>
      <trkpt lat="46.27873" lon="2.5471">
        <ele>367</ele>
        <time>2013-02-02T09:23:44Z</time>
      </trkpt>
      <trkpt lat="46.27909" lon="2.54691">
        <ele>369</ele>
        <time>2013-02-02T09:23:44Z</time>
      </trkpt>
      <trkpt lat="46.27972" lon="2.54562">
        <ele>382</ele>
        <time>2013-02-02T09:23:44Z</time>
      </trkpt>
      <trkpt lat="46.27931" lon="2.5449">
        <ele>383</ele>
        <time>2013-02-02T09:23:44Z</time>
      </trkpt>
      <trkpt lat="46.27923" lon="2.54432">
        <ele>384</ele>
        <time>2013-02-02T09:23:44Z</time>
      </trkpt>
      <trkpt lat="46.27941" lon="2.54373">
        <ele>386</ele>
        <time>2013-02-02T09:23:44Z</time>
      </trkpt>
      <trkpt lat="46.27896" lon="2.54295">
        <ele>386</ele>
        <time>2013-02-02T09:23:44Z</time>
      </trkpt>
      <trkpt lat="46.27927" lon="2.54244">
        <ele>386</ele>
        <time>2013-02-02T09:23:44Z</time>
      </trkpt>
      <trkpt lat="46.27977" lon="2.54179">
        <ele>386</ele>
        <time>2013-02-02T09:23:44Z</time>
      </trkpt>
      <trkpt lat="46.28031" lon="2.54127">
        <ele>385</ele>
        <time>2013-02-02T09:23:44Z</time>
      </trkpt>
      <trkpt lat="46.28085" lon="2.54056">
        <ele>384</ele>
        <time>2013-02-02T09:23:44Z</time>
      </trkpt>
      <trkpt lat="46.28126" lon="2.53978">
        <ele>378</ele>
        <time>2013-02-02T09:23:44Z</time>
      </trkpt>
      <trkpt lat="46.28171" lon="2.53907">
        <ele>374</ele>
        <time>2013-02-02T09:23:44Z</time>
      </trkpt>
      <trkpt lat="46.28135" lon="2.53836">
        <ele>372</ele>
        <time>2013-02-02T09:23:44Z</time>
      </trkpt>
      <trkpt lat="46.27978" lon="2.53764">
        <ele>368</ele>
        <time>2013-02-02T09:23:44Z</time>
      </trkpt>
      <trkpt lat="46.27802" lon="2.53659">
        <ele>358</ele>
        <time>2013-02-02T09:23:44Z</time>
      </trkpt>
      <trkpt lat="46.27686" lon="2.53613">
        <ele>351</ele>
        <time>2013-02-02T09:23:44Z</time>
      </trkpt>
      <trkpt lat="46.27564" lon="2.53542">
        <ele>363</ele>
        <time>2013-02-02T09:23:44Z</time>
      </trkpt>
      <trkpt lat="46.27492" lon="2.53496">
        <ele>364</ele>
        <time>2013-02-02T09:23:44Z</time>
      </trkpt>
      <trkpt lat="46.2738" lon="2.53353">
        <ele>373</ele>
        <time>2013-02-02T09:23:44Z</time>
      </trkpt>
      <trkpt lat="46.27277" lon="2.53307">
        <ele>376</ele>
        <time>2013-02-02T09:23:44Z</time>
      </trkpt>
      <trkpt lat="46.27151" lon="2.53203">
        <ele>384</ele>
        <time>2013-02-02T09:23:44Z</time>
      </trkpt>
      <trkpt lat="46.27174" lon="2.53151">
        <ele>388</ele>
        <time>2013-02-02T09:23:44Z</time>
      </trkpt>
      <trkpt lat="46.27205" lon="2.53067">
        <ele>392</ele>
        <time>2013-02-02T09:23:44Z</time>
      </trkpt>
      <trkpt lat="46.27268" lon="2.53008">
        <ele>391</ele>
        <time>2013-02-02T09:23:44Z</time>
      </trkpt>
      <trkpt lat="46.27323" lon="2.52827">
        <ele>388</ele>
        <time>2013-02-02T09:23:44Z</time>
      </trkpt>
      <trkpt lat="46.2735" lon="2.52704">
        <ele>394</ele>
        <time>2013-02-02T09:23:44Z</time>
      </trkpt>
      <trkpt lat="46.27363" lon="2.5262">
        <ele>397</ele>
        <time>2013-02-02T09:23:44Z</time>
      </trkpt>
      <trkpt lat="46.2744" lon="2.52529">
        <ele>397</ele>
        <time>2013-02-02T09:23:44Z</time>
      </trkpt>
      <trkpt lat="46.27526" lon="2.52432">
        <ele>402</ele>
        <time>2013-02-02T09:23:44Z</time>
      </trkpt>
      <trkpt lat="46.27566" lon="2.52367">
        <ele>404</ele>
        <time>2013-02-02T09:23:44Z</time>
      </trkpt>
      <trkpt lat="46.27621" lon="2.52166">
        <ele>407</ele>
        <time>2013-02-02T09:23:44Z</time>
      </trkpt>
      <trkpt lat="46.27693" lon="2.51829">
        <ele>407</ele>
        <time>2013-02-02T09:23:44Z</time>
      </trkpt>
      <trkpt lat="46.27779" lon="2.51479">
        <ele>417</ele>
        <time>2013-02-02T09:23:44Z</time>
      </trkpt>
      <trkpt lat="46.27775" lon="2.51336">
        <ele>421</ele>
        <time>2013-02-02T09:23:44Z</time>
      </trkpt>
      <trkpt lat="46.27807" lon="2.51168">
        <ele>422</ele>
        <time>2013-02-02T09:23:44Z</time>
      </trkpt>
      <trkpt lat="46.27825" lon="2.51051">
        <ele>425</ele>
        <time>2013-02-02T09:23:44Z</time>
      </trkpt>
      <trkpt lat="46.27888" lon="2.50837">
        <ele>431</ele>
        <time>2013-02-02T09:23:44Z</time>
      </trkpt>
      <trkpt lat="46.28028" lon="2.50727">
        <ele>430</ele>
        <time>2013-02-02T09:23:44Z</time>
      </trkpt>
      <trkpt lat="46.28172" lon="2.50644">
        <ele>427</ele>
        <time>2013-02-02T09:23:44Z</time>
      </trkpt>
      <trkpt lat="46.28248" lon="2.50598">
        <ele>428</ele>
        <time>2013-02-02T09:23:44Z</time>
      </trkpt>
      <trkpt lat="46.28428" lon="2.50579">
        <ele>430</ele>
        <time>2013-02-02T09:23:44Z</time>
      </trkpt>
      <trkpt lat="46.28577" lon="2.50554">
        <ele>430</ele>
        <time>2013-02-02T09:23:44Z</time>
      </trkpt>
      <trkpt lat="46.28649" lon="2.50535">
        <ele>431</ele>
        <time>2013-02-02T09:23:44Z</time>
      </trkpt>
      <trkpt lat="46.28838" lon="2.50477">
        <ele>436</ele>
        <time>2013-02-02T09:23:44Z</time>
      </trkpt>
      <trkpt lat="46.28959" lon="2.50399">
        <ele>440</ele>
        <time>2013-02-02T09:23:44Z</time>
      </trkpt>
      <trkpt lat="46.29081" lon="2.50315">
        <ele>435</ele>
        <time>2013-02-02T09:23:44Z</time>
      </trkpt>
      <trkpt lat="46.29157" lon="2.5027">
        <ele>429</ele>
        <time>2013-02-02T09:23:44Z</time>
      </trkpt>
      <trkpt lat="46.29234" lon="2.50257">
        <ele>425</ele>
        <time>2013-02-02T09:23:44Z</time>
      </trkpt>
      <trkpt lat="46.29279" lon="2.50271">
        <ele>425</ele>
        <time>2013-02-02T09:23:44Z</time>
      </trkpt>
      <trkpt lat="46.2936" lon="2.50271">
        <ele>427</ele>
        <time>2013-02-02T09:23:44Z</time>
      </trkpt>
      <trkpt lat="46.29513" lon="2.50284">
        <ele>430</ele>
        <time>2013-02-02T09:23:44Z</time>
      </trkpt>
      <trkpt lat="46.29383" lon="2.5005">
        <ele>436</ele>
        <time>2013-02-02T09:23:44Z</time>
      </trkpt>
      <trkpt lat="46.2932" lon="2.4994">
        <ele>441</ele>
        <time>2013-02-02T09:23:44Z</time>
      </trkpt>
      <trkpt lat="46.29194" lon="2.49784">
        <ele>447</ele>
        <time>2013-02-02T09:23:44Z</time>
      </trkpt>
      <trkpt lat="46.29167" lon="2.49732">
        <ele>449</ele>
        <time>2013-02-02T09:23:44Z</time>
      </trkpt>
      <trkpt lat="46.29095" lon="2.49608">
        <ele>450</ele>
        <time>2013-02-02T09:23:44Z</time>
      </trkpt>
      <trkpt lat="46.29006" lon="2.49387">
        <ele>451</ele>
        <time>2013-02-02T09:23:44Z</time>
      </trkpt>
      <trkpt lat="46.28925" lon="2.49212">
        <ele>448</ele>
        <time>2013-02-02T09:23:44Z</time>
      </trkpt>
      <trkpt lat="46.28898" lon="2.49056">
        <ele>443</ele>
        <time>2013-02-02T09:23:44Z</time>
      </trkpt>
      <trkpt lat="46.28867" lon="2.48764">
        <ele>447</ele>
        <time>2013-02-02T09:23:44Z</time>
      </trkpt>
      <trkpt lat="46.28836" lon="2.48595">
        <ele>449</ele>
        <time>2013-02-02T09:23:44Z</time>
      </trkpt>
      <trkpt lat="46.28859" lon="2.48478">
        <ele>451</ele>
        <time>2013-02-02T09:23:44Z</time>
      </trkpt>
      <trkpt lat="46.28859" lon="2.48362">
        <ele>448</ele>
        <time>2013-02-02T09:23:44Z</time>
      </trkpt>
      <trkpt lat="46.28868" lon="2.48206">
        <ele>444</ele>
        <time>2013-02-02T09:23:44Z</time>
      </trkpt>
      <trkpt lat="46.28873" lon="2.48083">
        <ele>441</ele>
        <time>2013-02-02T09:23:44Z</time>
      </trkpt>
      <trkpt lat="46.28909" lon="2.47972">
        <ele>437</ele>
        <time>2013-02-02T09:23:44Z</time>
      </trkpt>
      <trkpt lat="46.28949" lon="2.47882">
        <ele>438</ele>
        <time>2013-02-02T09:23:44Z</time>
      </trkpt>
      <trkpt lat="46.29026" lon="2.47843">
        <ele>441</ele>
        <time>2013-02-02T09:23:44Z</time>
      </trkpt>
      <trkpt lat="46.29156" lon="2.47804">
        <ele>438</ele>
        <time>2013-02-02T09:23:44Z</time>
      </trkpt>
      <trkpt lat="46.2917" lon="2.47798">
        <ele>437</ele>
        <time>2013-02-02T09:23:44Z</time>
      </trkpt>
      <trkpt lat="46.29336" lon="2.47934">
        <ele>425</ele>
        <time>2013-02-02T09:23:44Z</time>
      </trkpt>
      <trkpt lat="46.29471" lon="2.48071">
        <ele>418</ele>
        <time>2013-02-02T09:23:44Z</time>
      </trkpt>
      <trkpt lat="46.29552" lon="2.48169">
        <ele>412</ele>
        <time>2013-02-02T09:23:44Z</time>
      </trkpt>
      <trkpt lat="46.29615" lon="2.48221">
        <ele>408</ele>
        <time>2013-02-02T09:23:44Z</time>
      </trkpt>
      <trkpt lat="46.29695" lon="2.48331">
        <ele>396</ele>
        <time>2013-02-02T09:23:44Z</time>
      </trkpt>
      <trkpt lat="46.29808" lon="2.48397">
        <ele>393</ele>
        <time>2013-02-02T09:23:44Z</time>
      </trkpt>
      <trkpt lat="46.29871" lon="2.48462">
        <ele>390</ele>
        <time>2013-02-02T09:23:44Z</time>
      </trkpt>
      <trkpt lat="46.29907" lon="2.48501">
        <ele>388</ele>
        <time>2013-02-02T09:23:44Z</time>
      </trkpt>
      <trkpt lat="46.30001" lon="2.48611">
        <ele>384</ele>
        <time>2013-02-02T09:23:44Z</time>
      </trkpt>
      <trkpt lat="46.30005" lon="2.48722">
        <ele>389</ele>
        <time>2013-02-02T09:23:44Z</time>
      </trkpt>
      <trkpt lat="46.30028" lon="2.48774">
        <ele>390</ele>
        <time>2013-02-02T09:23:44Z</time>
      </trkpt>
      <trkpt lat="46.30091" lon="2.48845">
        <ele>390</ele>
        <time>2013-02-02T09:23:44Z</time>
      </trkpt>
      <trkpt lat="46.30149" lon="2.48982">
        <ele>392</ele>
        <time>2013-02-02T09:23:44Z</time>
      </trkpt>
      <trkpt lat="46.30207" lon="2.49073">
        <ele>386</ele>
        <time>2013-02-02T09:23:44Z</time>
      </trkpt>
      <trkpt lat="46.30284" lon="2.49151">
        <ele>382</ele>
        <time>2013-02-02T09:23:44Z</time>
      </trkpt>
      <trkpt lat="46.30347" lon="2.49196">
        <ele>377</ele>
        <time>2013-02-02T09:23:44Z</time>
      </trkpt>
      <trkpt lat="46.30418" lon="2.49235">
        <ele>373</ele>
        <time>2013-02-02T09:23:44Z</time>
      </trkpt>
      <trkpt lat="46.30522" lon="2.49262">
        <ele>367</ele>
        <time>2013-02-02T09:23:44Z</time>
      </trkpt>
      <trkpt lat="46.30643" lon="2.49288">
        <ele>361</ele>
        <time>2013-02-02T09:23:44Z</time>
      </trkpt>
      <trkpt lat="46.30747" lon="2.49314">
        <ele>356</ele>
        <time>2013-02-02T09:23:44Z</time>
      </trkpt>
      <trkpt lat="46.30796" lon="2.49353">
        <ele>355</ele>
        <time>2013-02-02T09:23:44Z</time>
      </trkpt>
      <trkpt lat="46.30832" lon="2.49438">
        <ele>355</ele>
        <time>2013-02-02T09:23:44Z</time>
      </trkpt>
      <trkpt lat="46.30931" lon="2.49497">
        <ele>366</ele>
        <time>2013-02-02T09:23:44Z</time>
      </trkpt>
      <trkpt lat="46.31066" lon="2.49549">
        <ele>378</ele>
        <time>2013-02-02T09:23:44Z</time>
      </trkpt>
      <trkpt lat="46.31178" lon="2.49569">
        <ele>386</ele>
        <time>2013-02-02T09:23:44Z</time>
      </trkpt>
      <trkpt lat="46.31295" lon="2.49576">
        <ele>393</ele>
        <time>2013-02-02T09:23:44Z</time>
      </trkpt>
      <trkpt lat="46.31426" lon="2.49556">
        <ele>393</ele>
        <time>2013-02-02T09:23:44Z</time>
      </trkpt>
      <trkpt lat="46.31543" lon="2.49518">
        <ele>383</ele>
        <time>2013-02-02T09:23:44Z</time>
      </trkpt>
      <trkpt lat="46.31727" lon="2.49694">
        <ele>396</ele>
        <time>2013-02-02T09:23:44Z</time>
      </trkpt>
      <trkpt lat="46.3183" lon="2.49778">
        <ele>396</ele>
        <time>2013-02-02T09:23:44Z</time>
      </trkpt>
      <trkpt lat="46.32024" lon="2.49915">
        <ele>397</ele>
        <time>2013-02-02T09:23:44Z</time>
      </trkpt>
      <trkpt lat="46.32077" lon="2.49954">
        <ele>396</ele>
        <time>2013-02-02T09:23:44Z</time>
      </trkpt>
      <trkpt lat="46.32163" lon="2.50013">
        <ele>390</ele>
        <time>2013-02-02T09:23:44Z</time>
      </trkpt>
      <trkpt lat="46.3223" lon="2.5013">
        <ele>392</ele>
        <time>2013-02-02T09:23:44Z</time>
      </trkpt>
      <trkpt lat="46.32311" lon="2.5026">
        <ele>391</ele>
        <time>2013-02-02T09:23:44Z</time>
      </trkpt>
      <trkpt lat="46.32437" lon="2.50397">
        <ele>391</ele>
        <time>2013-02-02T09:23:44Z</time>
      </trkpt>
      <trkpt lat="46.32575" lon="2.50833">
        <ele>400</ele>
        <time>2013-02-02T09:23:44Z</time>
      </trkpt>
      <trkpt lat="46.32638" lon="2.51222">
        <ele>396</ele>
        <time>2013-02-02T09:23:44Z</time>
      </trkpt>
      <trkpt lat="46.32642" lon="2.51287">
        <ele>397</ele>
        <time>2013-02-02T09:23:44Z</time>
      </trkpt>
      <trkpt lat="46.32597" lon="2.5132">
        <ele>397</ele>
        <time>2013-02-02T09:23:44Z</time>
      </trkpt>
      <trkpt lat="46.32561" lon="2.51651">
        <ele>387</ele>
        <time>2013-02-02T09:23:44Z</time>
      </trkpt>
      <trkpt lat="46.32344" lon="2.5202">
        <ele>364</ele>
        <time>2013-02-02T09:23:44Z</time>
      </trkpt>
      <trkpt lat="46.32299" lon="2.52156">
        <ele>355</ele>
        <time>2013-02-02T09:23:44Z</time>
      </trkpt>
      <trkpt lat="46.32258" lon="2.52241">
        <ele>348</ele>
        <time>2013-02-02T09:23:44Z</time>
      </trkpt>
      <trkpt lat="46.32218" lon="2.52351">
        <ele>343</ele>
        <time>2013-02-02T09:23:44Z</time>
      </trkpt>
      <trkpt lat="46.32218" lon="2.52422">
        <ele>341</ele>
        <time>2013-02-02T09:23:44Z</time>
      </trkpt>
      <trkpt lat="46.32186" lon="2.52513">
        <ele>336</ele>
        <time>2013-02-02T09:23:44Z</time>
      </trkpt>
      <trkpt lat="46.32163" lon="2.52526">
        <ele>335</ele>
        <time>2013-02-02T09:23:44Z</time>
      </trkpt>
      <trkpt lat="46.32037" lon="2.52512">
        <ele>331</ele>
        <time>2013-02-02T09:23:44Z</time>
      </trkpt>
      <trkpt lat="46.31983" lon="2.52603">
        <ele>329</ele>
        <time>2013-02-02T09:23:44Z</time>
      </trkpt>
      <trkpt lat="46.31934" lon="2.52798">
        <ele>329</ele>
        <time>2013-02-02T09:23:44Z</time>
      </trkpt>
      <trkpt lat="46.31911" lon="2.52934">
        <ele>324</ele>
        <time>2013-02-02T09:23:44Z</time>
      </trkpt>
      <trkpt lat="46.31933" lon="2.53109">
        <ele>315</ele>
        <time>2013-02-02T09:23:44Z</time>
      </trkpt>
      <trkpt lat="46.31919" lon="2.53226">
        <ele>307</ele>
        <time>2013-02-02T09:23:44Z</time>
      </trkpt>
      <trkpt lat="46.31883" lon="2.53278">
        <ele>302</ele>
        <time>2013-02-02T09:23:44Z</time>
      </trkpt>
      <trkpt lat="46.31856" lon="2.53252">
        <ele>301</ele>
        <time>2013-02-02T09:23:44Z</time>
      </trkpt>
      <trkpt lat="46.31811" lon="2.53193">
        <ele>296</ele>
        <time>2013-02-02T09:23:44Z</time>
      </trkpt>
      <trkpt lat="46.31775" lon="2.53232">
        <ele>296</ele>
        <time>2013-02-02T09:23:44Z</time>
      </trkpt>
      <trkpt lat="46.3178" lon="2.53343">
        <ele>300</ele>
        <time>2013-02-02T09:23:44Z</time>
      </trkpt>
      <trkpt lat="46.31793" lon="2.53427">
        <ele>307</ele>
        <time>2013-02-02T09:23:44Z</time>
      </trkpt>
      <trkpt lat="46.31788" lon="2.53505">
        <ele>312</ele>
        <time>2013-02-02T09:23:44Z</time>
      </trkpt>
      <trkpt lat="46.31716" lon="2.53557">
        <ele>309</ele>
        <time>2013-02-02T09:23:44Z</time>
      </trkpt>
      <trkpt lat="46.31635" lon="2.53608">
        <ele>314</ele>
        <time>2013-02-02T09:23:44Z</time>
      </trkpt>
      <trkpt lat="46.31554" lon="2.53647">
        <ele>320</ele>
        <time>2013-02-02T09:23:44Z</time>
      </trkpt>
      <trkpt lat="46.31505" lon="2.53699">
        <ele>322</ele>
        <time>2013-02-02T09:23:44Z</time>
      </trkpt>
      <trkpt lat="46.31657" lon="2.53875">
        <ele>319</ele>
        <time>2013-02-02T09:23:44Z</time>
      </trkpt>
      <trkpt lat="46.31707" lon="2.53946">
        <ele>316</ele>
        <time>2013-02-02T09:23:44Z</time>
      </trkpt>
      <trkpt lat="46.31805" lon="2.54232">
        <ele>304</ele>
        <time>2013-02-02T09:23:44Z</time>
      </trkpt>
      <trkpt lat="46.3189" lon="2.54525">
        <ele>291</ele>
        <time>2013-02-02T09:23:44Z</time>
      </trkpt>
      <trkpt lat="46.31971" lon="2.54648">
        <ele>282</ele>
        <time>2013-02-02T09:23:44Z</time>
      </trkpt>
      <trkpt lat="46.32052" lon="2.54766">
        <ele>271</ele>
        <time>2013-02-02T09:23:44Z</time>
      </trkpt>
      <trkpt lat="46.32083" lon="2.54863">
        <ele>272</ele>
        <time>2013-02-02T09:23:44Z</time>
      </trkpt>
      <trkpt lat="46.3215" lon="2.55084">
        <ele>275</ele>
        <time>2013-02-02T09:23:44Z</time>
      </trkpt>
      <trkpt lat="46.32208" lon="2.55195">
        <ele>273</ele>
        <time>2013-02-02T09:23:44Z</time>
      </trkpt>
      <trkpt lat="46.32226" lon="2.55286">
        <ele>272</ele>
        <time>2013-02-02T09:23:44Z</time>
      </trkpt>
      <trkpt lat="46.32239" lon="2.55422">
        <ele>269</ele>
        <time>2013-02-02T09:23:44Z</time>
      </trkpt>
      <trkpt lat="46.32244" lon="2.55467">
        <ele>269</ele>
        <time>2013-02-02T09:23:44Z</time>
      </trkpt>
      <trkpt lat="46.32252" lon="2.55552">
        <ele>270</ele>
        <time>2013-02-02T09:23:44Z</time>
      </trkpt>
      <trkpt lat="46.32158" lon="2.55649">
        <ele>269</ele>
        <time>2013-02-02T09:23:44Z</time>
      </trkpt>
      <trkpt lat="46.32081" lon="2.55668">
        <ele>267</ele>
        <time>2013-02-02T09:23:44Z</time>
      </trkpt>
      <trkpt lat="46.32036" lon="2.55694">
        <ele>267</ele>
        <time>2013-02-02T09:23:44Z</time>
      </trkpt>
      <trkpt lat="46.31996" lon="2.55785">
        <ele>266</ele>
        <time>2013-02-02T09:23:44Z</time>
      </trkpt>
      <trkpt lat="46.31964" lon="2.55798">
        <ele>266</ele>
        <time>2013-02-02T09:23:44Z</time>
      </trkpt>
      <trkpt lat="46.31892" lon="2.55836">
        <ele>267</ele>
        <time>2013-02-02T09:23:44Z</time>
      </trkpt>
      <trkpt lat="46.31928" lon="2.55836">
        <ele>266</ele>
        <time>2013-02-02T09:23:44Z</time>
      </trkpt>
      <trkpt lat="46.31937" lon="2.55921">
        <ele>266</ele>
        <time>2013-02-02T09:23:44Z</time>
      </trkpt>
      <trkpt lat="46.32031" lon="2.55973">
        <ele>264</ele>
        <time>2013-02-02T09:23:44Z</time>
      </trkpt>
      <trkpt lat="46.3213" lon="2.56058">
        <ele>264</ele>
        <time>2013-02-02T09:23:44Z</time>
      </trkpt>
      <trkpt lat="46.32229" lon="2.56">
        <ele>261</ele>
        <time>2013-02-02T09:23:44Z</time>
      </trkpt>
      <trkpt lat="46.32233" lon="2.56149">
        <ele>267</ele>
        <time>2013-02-02T09:23:44Z</time>
      </trkpt>
      <trkpt lat="46.32143" lon="2.56415">
        <ele>275</ele>
        <time>2013-02-02T09:23:44Z</time>
      </trkpt>
      <trkpt lat="46.32034" lon="2.56733">
        <ele>280</ele>
        <time>2013-02-02T09:23:44Z</time>
      </trkpt>
      <trkpt lat="46.31637" lon="2.57212">
        <ele>284</ele>
        <time>2013-02-02T09:23:44Z</time>
      </trkpt>
      <trkpt lat="46.31471" lon="2.57328">
        <ele>280</ele>
        <time>2013-02-02T09:23:44Z</time>
      </trkpt>
      <trkpt lat="46.31426" lon="2.57308">
        <ele>277</ele>
        <time>2013-02-02T09:23:44Z</time>
      </trkpt>
      <trkpt lat="46.3143" lon="2.57496">
        <ele>272</ele>
        <time>2013-02-02T09:23:44Z</time>
      </trkpt>
      <trkpt lat="46.31493" lon="2.57613">
        <ele>273</ele>
        <time>2013-02-02T09:23:44Z</time>
      </trkpt>
      <trkpt lat="46.31573" lon="2.57757">
        <ele>270</ele>
        <time>2013-02-02T09:23:44Z</time>
      </trkpt>
      <trkpt lat="46.31658" lon="2.57893">
        <ele>275</ele>
        <time>2013-02-02T09:23:44Z</time>
      </trkpt>
      <trkpt lat="46.31721" lon="2.58069">
        <ele>269</ele>
        <time>2013-02-02T09:23:44Z</time>
      </trkpt>
      <trkpt lat="46.31802" lon="2.58186">
        <ele>268</ele>
        <time>2013-02-02T09:23:44Z</time>
      </trkpt>
      <trkpt lat="46.31869" lon="2.58271">
        <ele>268</ele>
        <time>2013-02-02T09:23:44Z</time>
      </trkpt>
      <trkpt lat="46.31909" lon="2.58355">
        <ele>271</ele>
        <time>2013-02-02T09:23:44Z</time>
      </trkpt>
      <trkpt lat="46.31909" lon="2.58453">
        <ele>271</ele>
        <time>2013-02-02T09:23:44Z</time>
      </trkpt>
      <trkpt lat="46.31886" lon="2.58557">
        <ele>271</ele>
        <time>2013-02-02T09:23:44Z</time>
      </trkpt>
      <trkpt lat="46.31882" lon="2.58634">
        <ele>262</ele>
        <time>2013-02-02T09:23:44Z</time>
      </trkpt>
      <trkpt lat="46.31918" lon="2.5868">
        <ele>263</ele>
        <time>2013-02-02T09:23:44Z</time>
      </trkpt>
      <trkpt lat="46.31967" lon="2.58745">
        <ele>260</ele>
        <time>2013-02-02T09:23:44Z</time>
      </trkpt>
      <trkpt lat="46.31998" lon="2.58797">
        <ele>265</ele>
        <time>2013-02-02T09:23:44Z</time>
      </trkpt>
      <trkpt lat="46.32007" lon="2.58947">
        <ele>262</ele>
        <time>2013-02-02T09:23:44Z</time>
      </trkpt>
      <trkpt lat="46.32038" lon="2.59064">
        <ele>260</ele>
        <time>2013-02-02T09:23:44Z</time>
      </trkpt>
      <trkpt lat="46.3207" lon="2.59155">
        <ele>264</ele>
        <time>2013-02-02T09:23:44Z</time>
      </trkpt>
      <trkpt lat="46.32065" lon="2.59252">
        <ele>259</ele>
        <time>2013-02-02T09:23:44Z</time>
      </trkpt>
      <trkpt lat="46.3206" lon="2.59336">
        <ele>254</ele>
        <time>2013-02-02T09:23:44Z</time>
      </trkpt>
      <trkpt lat="46.31912" lon="2.59342">
        <ele>252</ele>
        <time>2013-02-02T09:23:44Z</time>
      </trkpt>
      <trkpt lat="46.31593" lon="2.58945">
        <ele>273</ele>
        <time>2013-02-02T09:23:44Z</time>
      </trkpt>
      <trkpt lat="46.31575" lon="2.58938">
        <ele>273</ele>
        <time>2013-02-02T09:23:44Z</time>
      </trkpt>
    </trkseg>
  </trk>
</gpx>